Weather History for KVUO - August, 2013

Change the Weather History Date:

Friday, August 23, 2013

  Actual Average Record
Temperature  
Mean Temperature 69 °F 69 °F  
Max Temperature 76 °F 81 °F 95 °F (2000)
Min Temperature 62 °F 56 °F 45 °F (1910)
Degree Days  
Heating Degree Days 0    
Month to date heating degree days 3  
Since 1 June heating degree days 68  
Since 1 July heating degree days 12  
Cooling Degree Days 4    
Month to date cooling degree days 126  
Year to date cooling degree days 330  
Since 1 June cooling degree days 318  
Growing Degree Days 18 (Base 50)    
Moisture  
Dew Point 56 °F    
Average Humidity 65    
Maximum Humidity 84    
Minimum Humidity 46    
Precipitation  
Precipitation 0.01 in 0.03 in 1.00 in (1968)
Month to date precipitation 0.05 0.48  
Year to date precipitation 15.03 21.54  
Snow  
Snow 0.00 in - - ()
Month to date snowfall 0.0  
Since 1 June snowfall 0.0  
Snow Depth 0.00 in    
Sea Level Pressure  
Sea Level Pressure 29.91 in    
Wind  
Wind Speed 2 mph (East)    
Max Wind Speed 7 mph    
Max Gust Speed 10 mph    
Visibility 10 miles    
Events Rain    
T = Trace of Precipitation, MM = Missing Value Source: NWS Daily Summary

Daily Weather History Graph

Daily Weather History Graph

Search for Another Location

Airport or City:

Trip Planner

Search our weather history database for the weather conditions in past years. The results will help you decide how hot, cold, wet, or windy it might be!

Date:

Astronomy

Aug. 23, 2013 Rise Set
Actual Time 6:21 AM PDT 8:04 PM PDT
Civil Twilight 5:49 AM PDT 8:35 PM PDT
Nautical Twilight 5:11 AM PDT 9:13 PM PDT
Astronomical Twilight 4:29 AM PDT 9:55 PM PDT
Moon 9:12 PM PDT (8/23) 9:34 AM PDT (8/23)
Length of Visible Light 14h 45m
Length of Day
13h 42m
Waning Gibbous, 91% of the Moon is Illuminated
Aug 23
Waning Gibbous
Aug 28
Last Quarter
Sep 5
New
Sep 12
First Quarter
Sep 19
Full

Hourly Weather History & Observations

Time (PDT) Temp. Dew Point Humidity Pressure Visibility Wind Dir Wind Speed Gust Speed Precip Events Conditions
12:53 AM 68.0 °F 60.1 °F 76% 29.90 in 10.0 mi SE 3.5 mph - 0.00 in Rain Light Rain
1:53 AM 66.9 °F 60.1 °F 79% 29.90 in 10.0 mi Calm Calm - 0.00 in   Overcast
2:53 AM 64.0 °F 57.9 °F 80% 29.91 in 10.0 mi West 4.6 mph - N/A   Overcast
3:53 AM 64.0 °F 57.0 °F 78% 29.91 in 10.0 mi NNW 5.8 mph - 0.01 in Rain Light Rain
4:53 AM 63.0 °F 57.0 °F 81% 29.90 in 10.0 mi Calm Calm - 0.00 in   Mostly Cloudy
5:53 AM 62.1 °F 57.0 °F 84% 29.90 in 10.0 mi Calm Calm - N/A   Overcast
6:53 AM 62.1 °F 57.0 °F 84% 29.90 in 10.0 mi Calm Calm - N/A   Overcast
7:12 AM 62.6 °F 57.2 °F 82% 29.91 in 10.0 mi Calm Calm - N/A   Overcast
7:38 AM 62.6 °F 57.2 °F 82% 29.92 in 10.0 mi Calm Calm - N/A   Overcast
7:53 AM 63.0 °F 57.0 °F 81% 29.92 in 10.0 mi Calm Calm - N/A   Overcast
8:53 AM 62.1 °F 55.0 °F 78% 29.94 in 10.0 mi SSE 4.6 mph - N/A   Overcast
9:53 AM 63.0 °F 55.9 °F 78% 29.94 in 10.0 mi Calm Calm - N/A   Overcast
10:53 AM 64.9 °F 55.9 °F 73% 29.94 in 10.0 mi Calm Calm - N/A   Overcast
11:53 AM 66.0 °F 55.9 °F 70% 29.94 in 10.0 mi Variable 3.5 mph - N/A   Overcast
12:19 PM 66.2 °F 57.2 °F 73% 29.95 in 10.0 mi Calm Calm - N/A   Overcast
12:53 PM 66.9 °F 57.0 °F 70% 29.95 in 10.0 mi Variable 3.5 mph - N/A   Overcast
1:53 PM 69.1 °F 55.9 °F 63% 29.94 in 10.0 mi Calm Calm - N/A   Mostly Cloudy
2:53 PM 73.0 °F 55.0 °F 53% 29.92 in 10.0 mi Calm Calm - N/A   Clear
3:53 PM 73.9 °F 54.0 °F 50% 29.91 in 10.0 mi Variable 3.5 mph - N/A   Clear
4:53 PM 73.9 °F 54.0 °F 50% 29.89 in 10.0 mi Calm Calm - N/A   Clear
5:53 PM 75.0 °F 54.0 °F 48% 29.88 in 10.0 mi Variable 3.5 mph - N/A   Clear
6:53 PM 73.9 °F 54.0 °F 50% 29.87 in 10.0 mi SSE 4.6 mph - N/A   Clear
7:53 PM 72.0 °F 55.9 °F 57% 29.86 in 10.0 mi East 3.5 mph - N/A   Scattered Clouds
8:53 PM 71.1 °F 55.9 °F 59% 29.88 in 10.0 mi Variable 5.8 mph - N/A   Overcast
9:53 PM 68.0 °F 57.0 °F 68% 29.89 in 10.0 mi NNW 4.6 mph - N/A   Mostly Cloudy
10:53 PM 66.0 °F 57.0 °F 73% 29.89 in 10.0 mi North 5.8 mph - N/A   Overcast
11:53 PM 64.9 °F 57.0 °F 75% 29.90 in 10.0 mi Variable 3.5 mph - N/A   Overcast